Regional Weather Roundup
Issued by NWS

Home | Current Version | Previous Version | Text Only | Print | Product List | Glossary Off
Versions: 1 2 3 4 5 6 7 8 9 10 11 12 13 14 15 16 17 18 19 20 21 22 23 24 25 26 27 28

000
ASUS45 KTFX 280810
RWRMT
MONTANA REGIONAL WEATHER ROUNDUP
NATIONAL WEATHER SERVICE GREAT FALLS MT
200 AM MDT WED JUN 28 2017

NOTE: "FAIR" INDICATES FEW OR NO CLOUDS BELOW 12000 FEET WITH NO
SIGNIFICANT WEATHER AND/OR OBSTRUCTIONS TO VISIBILITY.

MTZ001>007-043-280900-
WEST OF THE DIVIDE

CITY           SKY/WX    TMP DP  RH WIND       PRES   REMARKS
KALISPELL      PTCLDY    49  45  86 N3        29.78F
MISSOULA       MOCLDY    58  43  57 SW5       29.83F
BUTTE          CLOUDY    48  44  86 SE6       29.95F
MULLAN PASS    PTCLDY    52  36  54 VRB3      29.96S
ANACONDA         N/A     55  43  62 S6        29.90F
DEER LODGE       N/A     54  45  71 CALM      29.90F
EUREKA           N/A     55  41  58 CALM      29.76F
HAMILTON         N/A     61  46  59 S9        29.85F
$$

MTZ008-052>055-280900-
SOUTHWEST MONTANA

CITY           SKY/WX    TMP DP  RH WIND       PRES   REMARKS
BOZEMAN        CLEAR     52  48  86 SE3       29.89F
DILLON         CLOUDY    52  45  77 SW9       29.94S
W YELLOWSTONE  CLOUDY    45  45 100 S7        30.02F FOG
ENNIS          PTCLDY    52  43  71 S12       29.99F
THREE FORKS      N/A     53  49  86 CALM      29.89F
$$

MTZ009-010-012-014-046-048-049-054-280900-
EAST SLOPES AND CENTRAL MONTANA

CITY           SKY/WX    TMP DP  RH WIND       PRES   REMARKS
CUT BANK       MOCLDY    56  36  47 W12       29.76S
GREAT FALLS    CLEAR     53  46  77 SW10      29.77S
MALMSTROM AFB  PTCLDY    57  49  76 SW14      29.76S
HELENA         CLEAR     63  41  44 CALM      29.82F
CHOTEAU          N/A     59  36  41 NW7       29.80S
$$

MTZ011-013-016-021-045-047-050-051-280900-
NORTH CENTRAL MONTANA

CITY           SKY/WX    TMP DP  RH WIND       PRES   REMARKS
HAVRE          PTCLDY    61  44  53 S7        29.70F
LEWISTOWN      CLOUDY    58  50  75 SE7       29.80F
N BAR RANCH    MOCLDY    59  45  58 SW8       29.85F
CHINOOK          N/A     61  45  55 E6        29.71F
FORT BENTON      N/A     61  45  55 MISG      29.73S
$$

MTZ017>020-022>027-061-062-280900-
NORTHEAST MONTANA

CITY           SKY/WX    TMP DP  RH WIND       PRES   REMARKS
GLASGOW        CLEAR     58  40  51 NE7       29.74S
JORDAN           N/A     56  54  93 CALM      29.76F
SIDNEY         CLOUDY    61  52  72 NW9       29.70S
WOLF POINT     CLEAR     51  43  74 W3        29.73F
MALTA          CLEAR     50  45  81 CALM      29.73S
PLENTYWOOD       N/A     52  43  71 CALM      29.72F
POPLAR           N/A     55  45  67 NW5       29.74S
$$

MTZ028>42-056>058-280900-
SOUTHCENTRAL AND SOUTHEAST MONTANA

CITY           SKY/WX    TMP DP  RH WIND       PRES   REMARKS
BAKER          CLOUDY    59  51  75 W9        29.75F
BILLINGS       CLOUDY    61  44  53 W6        29.81S
LIVINGSTON     CLOUDY    60  47  61 W18G25    29.87S
MILES CITY     CLEAR     56  51  84 NW6       29.76F
BIG TIMBER     CLEAR     59  46  63 W13       29.89F
LAUREL           N/A     60  44  55 MISG      29.83S
ROUNDUP          N/A     64  46  52 E2        29.73F
$$

REGIONAL REPORTS...DAKOTAS

CITY           SKY/WX    TMP DP  RH WIND       PRES   REMARKS
WILLISTON      PTCLDY    64  52  64 NW13      29.68S
MINOT          CLOUDY    65  57  75 NW18      29.55F
DICKINSON      CLOUDY    63  54  72 N15G22    29.64S
WATFORD CITY     N/A     61  57  88 NW8       29.66S
BISMARCK       CLOUDY    64  63  96 N6        29.53R
GRAND FORKS    LGT RAIN  61  58  90 SE16      29.51F
FARGO          CLOUDY    63  60  90 E10       29.52R
BUFFALO SD       N/A     65  53  65 NW21      29.66
RAPID CITY     CLEAR     60  50  69 NW10      29.72F
$$

REGIONAL REPORTS...WYOMING/IDAHO/WASHINGTON

CITY           SKY/WX    TMP DP  RH WIND       PRES   REMARKS
GILLETTE       CLEAR     55  52  89 W10       29.85F
SHERIDAN       CLEAR     52  48  86 CALM      29.85F
BUFFALO WY     CLEAR     56  42  59 W7        29.91F
CODY           CLOUDY    63  40  42 SW9       29.91F
YELLOWSTONE LA   N/A     41  41 100 CALM      30.10F
IDAHO FALLS    CLEAR     51  48  89 N7        29.92F
SALMON         CLOUDY    57  46  67 SW3       29.93S
BOISE          PTCLDY    69  45  41 SE12      29.79S
SPOKANE        MOCLDY    63  42  46 VRB3      29.80F
$$

REGIONAL REPORTS...ALBERTA

CITY           SKY/WX    TMP DP  RH WIND       PRES   REMARKS
EDMONTON       LGT RAIN  54  48  82 SW9       29.63F
CALGARY        PTCLDY    52  45  76 NW5       29.78F
LETHBRIDGE     CLEAR     55  46  71 NW16G24   29.72R
MEDICINE HAT   CLOUDY    61  41  48 NE7       29.67F
WATERTON GATE    N/A     57  36  44 SW9         N/A
CARDSTON         N/A     63  36  36 W13G18      N/A
MILK RIVER       N/A     52  41  66 NW12        N/A
$$

REGIONAL REPORTS...SASKATCHEWAN

CITY           SKY/WX    TMP DP  RH WIND       PRES   REMARKS
SWIFT CURRENT  MOCLDY    48  39  71 S5        29.72S
REGINA         CLEAR     45  43  93 W10       29.70R
SASKATOON      PTCLDY    46  41  81 W6        29.66F
CYPRESS HILLS    N/A     50  37  62 E7          N/A
VAL MARIE        N/A     43  37  81 NE6         N/A
ROCKGLEN         N/A     50  37  62 N6          N/A
$$




USA.gov is the U.S. government's official web portal to all federal, state and local government web resources and services.